Weather History for KALN - September, 2013

Change the Weather History Date:

Friday, September 6, 2013

  Actual Average Record
Temperature  
Mean Temperature 73 °F -  
Max Temperature 86 °F 82 °F 95 °F (1998)
Min Temperature 60 °F 60 °F 33 °F (2008)
Cooling Degree Days 8    
Growing Degree Days 23 (Base 50)    
Moisture  
Dew Point 63 °F    
Average Humidity 83    
Maximum Humidity 97    
Minimum Humidity 40    
Precipitation  
Precipitation 0.00 in - - ()
Sea Level Pressure  
Sea Level Pressure 30.14 in    
Wind  
Wind Speed 2 mph (SE)    
Max Wind Speed 12 mph    
Max Gust Speed -    
Visibility 9 miles    
Events      
Averages and records for this station are not official NWS values.
T = Trace of Precipitation, MM = Missing Value Source: NWS Daily Summary

Daily Weather History Graph

Daily Weather History Graph

Search for Another Location

Airport or City:

Trip Planner

Search our weather history database for the weather conditions in past years. The results will help you decide how hot, cold, wet, or windy it might be!

Date:

Astronomy

Sep. 06, 2013 Rise Set
Actual Time 6:33 AM CDT 7:22 PM CDT
Civil Twilight 6:06 AM CDT 7:49 PM CDT
Nautical Twilight 5:34 AM CDT 8:21 PM CDT
Astronomical Twilight 5:01 AM CDT 8:54 PM CDT
Moon 7:45 AM CDT (9/6) 7:48 PM CDT (9/6)
Length of Visible Light 13h 42m
Length of Day
12h 48m
New Moon, 2% of the Moon is Illuminated
Sep 6
New Moon
Sep 12
First Quarter
Sep 19
Full
Sep 26
Last Quarter
Oct 4
New

Hourly Weather History & Observations

Time (CDT) Temp. Heat Index Dew Point Humidity Pressure Visibility Wind Dir Wind Speed Gust Speed Precip Events Conditions
12:15 AM 63.9 °F - 62.1 °F 94% 30.18 in 10.0 mi Calm Calm - N/A   Clear
12:35 AM 64.4 °F - 62.6 °F 94% 30.18 in 10.0 mi Calm Calm - N/A   Clear
12:55 AM 64.4 °F - 62.6 °F 94% 30.18 in 10.0 mi Calm Calm - N/A   Clear
1:15 AM 63.9 °F - 62.2 °F 94% 30.18 in 10.0 mi Calm Calm - N/A   Clear
1:35 AM 64.4 °F - 62.8 °F 94% 30.18 in 10.0 mi Calm Calm - N/A   Clear
1:55 AM 64.6 °F - 62.8 °F 94% 30.18 in 10.0 mi Calm Calm - N/A   Clear
2:15 AM 64.6 °F - 62.8 °F 94% 30.18 in 10.0 mi Calm Calm - N/A   Clear
2:35 AM 64.6 °F - 63.0 °F 94% 30.17 in 10.0 mi Calm Calm - N/A   Clear
2:55 AM 64.4 °F - 62.6 °F 94% 30.17 in 10.0 mi Calm Calm - N/A   Clear
3:15 AM 64.4 °F - 62.8 °F 94% 30.17 in 10.0 mi Calm Calm - N/A   Clear
3:35 AM 64.4 °F - 62.8 °F 94% 30.17 in 10.0 mi Calm Calm - N/A   Clear
3:55 AM 63.9 °F - 62.6 °F 96% 30.17 in 10.0 mi Calm Calm - N/A   Clear
4:15 AM 64.4 °F - 62.8 °F 94% 30.17 in 10.0 mi Calm Calm - N/A   Clear
4:35 AM 63.7 °F - 62.4 °F 96% 30.17 in 10.0 mi Calm Calm - N/A   Clear
4:55 AM 63.1 °F - 61.9 °F 96% 30.17 in 10.0 mi Calm Calm - N/A   Clear
5:15 AM 62.2 °F - 60.8 °F 95% 30.17 in 7.0 mi Calm Calm - N/A   Clear
5:35 AM 62.4 °F - 61.5 °F 97% 30.17 in 7.0 mi Calm Calm - N/A   Clear
5:55 AM 61.2 °F - 60.3 °F 97% 30.17 in 7.0 mi Calm Calm - N/A   Clear
6:15 AM 61.0 °F - 59.9 °F 96% 30.18 in 7.0 mi Calm Calm - N/A   Clear
6:35 AM 60.8 °F - 59.9 °F 97% 30.18 in 2.0 mi Calm Calm - N/A   Clear
6:55 AM 61.9 °F - 61.2 °F 97% 30.18 in 5.0 mi ENE 3.5 mph - N/A   Clear
10:55 AM 80.6 °F 81.8 °F 62.6 °F 54% 30.19 in 10.0 mi SE 11.5 mph - N/A   Partly Cloudy
11:48 AM 82.4 °F 83.9 °F 64.4 °F 54% 30.19 in 10.0 mi SSE 9.2 mph - N/A   Partly Cloudy
12:55 PM 82.4 °F 83.4 °F 62.6 °F 51% 30.16 in 10.0 mi SSE 8.1 mph - N/A   Partly Cloudy
1:50 PM 84.2 °F 83.8 °F 59.0 °F 42% 30.14 in 10.0 mi SE 9.2 mph - N/A   Partly Cloudy
2:50 PM 86.0 °F 85.4 °F 59.0 °F 40% 30.11 in 10.0 mi SSE 9.2 mph - N/A   Clear
3:48 PM 86.0 °F 85.4 °F 59.0 °F 40% 30.10 in 10.0 mi SE 9.2 mph - N/A   Clear
4:50 PM 86.0 °F 86.1 °F 60.8 °F 43% 30.07 in 10.0 mi South 11.5 mph - N/A   Clear
5:50 PM 78.8 °F - 60.8 °F 54% 30.07 in 10.0 mi SE 11.5 mph - N/A   Clear
6:50 PM 80.6 °F 81.8 °F 62.6 °F 54% 30.06 in 10.0 mi SE 9.2 mph - N/A   Partly Cloudy
7:50 PM 73.4 °F - 66.2 °F 78% 30.05 in 10.0 mi ESE 8.1 mph - N/A   Partly Cloudy
8:50 PM 71.6 °F - 66.2 °F 83% 30.06 in 10.0 mi Calm Calm - N/A   Partly Cloudy
9:50 PM 68.0 °F - 66.2 °F 94% 30.06 in 10.0 mi Calm Calm - N/A   Partly Cloudy
10:15 PM 67.3 °F - 65.1 °F 93% 30.06 in 10.0 mi Calm Calm - N/A   Clear
10:35 PM 67.1 °F - 64.9 °F 93% 30.06 in 10.0 mi Calm Calm - N/A   Clear
10:55 PM 66.2 °F - 64.2 °F 93% 30.06 in 7.0 mi Calm Calm - N/A   Clear
11:15 PM 66.2 °F - 64.6 °F 94% 30.06 in 10.0 mi Calm Calm - N/A   Clear
11:35 PM 66.2 °F - 64.2 °F 93% 30.06 in 10.0 mi Calm Calm - N/A   Clear
11:55 PM 64.6 °F - 63.0 °F 94% 30.05 in 7.0 mi SSE 3.5 mph - N/A   Clear